DO9LL-1 Weather Reports


Display with metric or nautical units.
time (UTC)temp
F
wind
direction
speed
MPH
gust
MPH
rain 1hr
in
rain 24hr
in
rain mn
in
humidity
%
barometer
mb
20260901003734 59 279 2.0 3.0 0.00 0.17 0.00 89 1015.3
20260901002737 59 260 2.0 4.0 0.00 0.17 0.00 89 1015.3
20260901001729 59 264 1.0 3.0 0.00 0.17 0.00 89 1015.3
20260901000726 59 256 1.0 4.0 0.00 0.17 0.00 89 1015.3
20260831235723 59 258 1.0 2.0 0.00 0.17 0.00 89 1015.4
20260831234720 59 264 1.0 2.0 0.00 0.17 0.00 88 1015.2
20260831233718 60 265 0.0 2.0 0.00 0.17 0.00 87 1015.2
20260831232740 60 256 2.0 3.0 0.00 0.17 0.00 87 1015.2
20260831231732 60 256 2.0 4.0 0.00 0.17 0.00 87 1015.2
20260831230729 60 244 2.0 4.0 0.00 0.17 0.00 88 1015.1
20260831225726 60 249 1.0 3.0 0.00 0.17 0.00 86 1015.1
20260831224723 60 261 2.0 4.0 0.00 0.17 0.00 86 1015.0
20260831223722 60 248 1.0 3.0 0.00 0.17 0.00 86 1015.0
20260831222724 60 254 2.0 4.0 0.00 0.17 0.00 86 1015.1
20260831221735 60 255 2.0 4.0 0.00 0.17 0.00 86 1014.9
20260831220732 60 252 2.0 3.0 0.00 0.17 0.00 87 1014.9
20260831215729 60 255 2.0 4.0 0.00 0.17 0.17 87 1014.8
20260831214726 60 255 1.0 4.0 0.00 0.17 0.17 87 1014.8
20260831213724 60 259 2.0 3.0 0.00 0.17 0.17 87 1014.8
20260831212720 60 249 3.0 4.0 0.00 0.17 0.17 88 1014.7
20260831211717 60 264 2.0 4.0 0.00 0.17 0.17 88 1014.6
20260831210735 60 250 2.0 4.0 0.03 0.17 0.17 88 1014.4
20260831205732 60 256 2.0 4.0 0.03 0.17 0.17 90 1014.3
20260831204728 60 237 1.0 2.0 0.03 0.17 0.17 89 1014.2
20260831203726 60 264 2.0 4.0 0.03 0.17 0.17 88 1014.1
20260831202723 61 253 2.0 3.0 0.03 0.17 0.17 87 1014.0
20260831201720 62 279 2.0 6.0 0.03 0.17 0.17 83 1013.9
20260831200717 63 254 3.0 6.0 0.00 0.14 0.14 80 1013.7
20260831195734 63 252 3.0 7.0 0.00 0.14 0.14 79 1013.5
20260831194732 63 266 3.0 7.0 0.00 0.14 0.14 79 1013.4
20260831193728 63 247 3.0 6.0 0.00 0.14 0.14 79 1013.3
20260831192726 63 263 4.0 8.0 0.00 0.14 0.14 78 1013.2
20260831191723 63 249 3.0 6.0 0.00 0.14 0.14 78 1013.1
20260831190720 63 266 3.0 6.0 0.00 0.14 0.14 79 1012.9
20260831185717 63 253 3.0 7.0 0.00 0.14 0.14 78 1012.7
20260831184734 63 265 2.0 4.0 0.00 0.14 0.14 78 1012.6
20260831183731 63 250 3.0 6.0 0.00 0.14 0.14 77 1012.5
20260831182738 63 244 3.0 6.0 0.00 0.14 0.14 76 1012.3
20260831181730 64 241 3.0 6.0 0.00 0.14 0.14 74 1012.1
20260831180722 64 257 3.0 4.0 0.00 0.14 0.14 73 1011.8
20260831175719 65 262 3.0 7.0 0.00 0.14 0.14 72 1011.7
20260831174716 65 243 3.0 7.0 0.00 0.14 0.14 71 1011.5
20260831173733 65 248 5.0 11.0 0.00 0.14 0.14 70 1011.3
20260831172740 66 243 4.0 8.0 0.00 0.14 0.14 70 1011.3
20260831171727 66 249 5.0 11.0 0.00 0.14 0.14 69 1011.1
20260831170724 67 256 5.0 10.0 0.00 0.14 0.14 69 1010.9
20260831165721 67 251 5.0 9.0 0.00 0.14 0.14 70 1010.8
20260831164718 67 251 4.0 9.0 0.00 0.14 0.14 72 1010.8
20260831163735 66 266 6.0 13.0 0.00 0.14 0.14 72 1010.6
20260831162737 66 263 5.0 9.0 0.00 0.14 0.14 72 1010.5
20260831161729 67 232 4.0 10.0 0.00 0.14 0.14 73 1010.5
20260831160726 67 253 4.0 8.0 0.00 0.14 0.14 74 1010.3
20260831155723 67 261 4.0 7.0 0.00 0.14 0.14 74 1010.3
20260831154720 66 259 3.0 8.0 0.00 0.14 0.14 75 1010.4
20260831153717 66 267 4.0 7.0 0.00 0.14 0.14 77 1010.4
20260831152734 64 244 3.0 7.0 0.00 0.14 0.14 80 1010.3
20260831151731 63 256 4.0 7.0 0.00 0.14 0.14 80 1010.1
20260831150729 65 252 4.0 10.0 0.00 0.14 0.14 74 1010.1
20260831145725 66 255 4.0 8.0 0.01 0.14 0.14 71 1010.1
20260831144722 67 272 6.0 11.0 0.01 0.14 0.14 69 1010.0
20260831143720 66 244 5.0 8.0 0.01 0.14 0.14 71 1009.8
20260831142722 64 262 4.0 8.0 0.01 0.14 0.14 73 1009.7
20260831141734 62 258 4.0 8.0 0.01 0.14 0.14 77 1009.7
20260831140731 62 256 5.0 11.0 0.01 0.14 0.14 77 1009.7
20260831135728 64 262 5.0 11.0 0.00 0.13 0.13 79 1009.3
20260831134725 65 268 4.0 11.0 0.00 0.13 0.13 78 1009.3
20260831133722 65 265 4.0 8.0 0.00 0.13 0.13 77 1009.2
20260831132719 66 244 4.0 10.0 0.00 0.13 0.13 75 1009.2
20260831131716 67 237 4.0 13.0 0.00 0.13 0.13 72 1008.8
20260831130733 69 237 5.0 10.0 0.00 0.13 0.13 68 1008.7
20260831125730 70 250 4.0 9.0 0.00 0.13 0.13 68 1008.7
20260831124728 68 236 6.0 11.0 0.00 0.13 0.13 68 1008.6
20260831123725 66 261 8.0 16.0 0.00 0.13 0.13 70 1008.7
20260831122722 66 269 6.0 14.0 0.00 0.13 0.13 71 1008.7
20260831121719 67 275 5.0 13.0 0.00 0.13 0.13 72 1008.6
20260831120716 68 234 6.0 14.0 0.00 0.13 0.13 68 1008.6
20260831115733 67 263 5.0 10.0 0.00 0.13 0.13 70 1008.5
20260831114730 67 260 4.0 9.0 0.00 0.13 0.13 71 1008.4
20260831113727 68 258 4.0 8.0 0.00 0.13 0.13 74 1008.3
20260831112724 67 232 5.0 13.0 0.12 0.13 0.13 75 1008.3
20260831111721 67 261 4.0 10.0 0.12 0.13 0.13 77 1008.2
20260831110718 66 271 3.0 9.0 0.12 0.13 0.13 82 1008.3
20260831105715 65 252 2.0 7.0 0.12 0.13 0.13 88 1008.4
20260831104732 63 208 2.0 7.0 0.12 0.13 0.13 90 1008.5
20260831103730 63 270 2.0 8.0 0.12 0.13 0.13 86 1008.7
20260831102726 66 235 3.0 8.0 0.00 0.01 0.01 76 1008.6
20260831101724 67 197 3.0 11.0 0.00 0.01 0.01 73 1008.5
20260831100721 69 289 4.0 13.0 0.00 0.01 0.01 70 1008.5
20260831095718 68 249 4.0 13.0 0.00 0.01 0.01 73 1008.5
20260831094735 68 253 4.0 13.0 0.00 0.01 0.01 73 1008.5
20260831093732 68 254 4.0 9.0 0.00 0.01 0.01 75 1008.5
20260831092734 66 254 4.0 10.0 0.00 0.01 0.01 78 1008.7
20260831091731 67 283 5.0 11.0 0.00 0.01 0.01 76 1008.8
20260831090723 68 251 4.0 10.0 0.00 0.01 0.01 74 1008.6
20260831085720 67 283 4.0 10.0 0.00 0.01 0.01 76 1008.6
20260831084717 65 260 4.0 10.0 0.00 0.01 0.01 79 1008.6
20260831083734 66 258 4.0 9.0 0.00 0.01 0.01 78 1008.7
20260831082736 65 256 3.0 8.0 0.00 0.01 0.01 81 1008.8
20260831081728 64 226 2.0 6.0 0.00 0.01 0.01 81 1008.6
20260831080725 65 252 3.0 7.0 0.00 0.01 0.01 81 1008.6
20260831075723 65 250 4.0 11.0 0.00 0.01 0.01 81 1008.8
20260831074720 64 247 4.0 9.0 0.00 0.01 0.01 82 1008.6
20260831073717 64 275 3.0 10.0 0.00 0.01 0.01 83 1008.8
20260831072734 64 250 3.0 9.0 0.00 0.01 0.01 83 1008.9
20260831071731 64 247 3.0 8.0 0.00 0.01 0.01 83 1009.0
20260831070728 63 235 2.0 7.0 0.00 0.01 0.01 84 1009.1
20260831065725 63 274 4.0 8.0 0.00 0.01 0.01 84 1008.9
20260831064721 63 208 3.0 7.0 0.00 0.01 0.01 85 1008.7
20260831063718 63 182 3.0 7.0 0.00 0.01 0.01 85 1008.6
20260831062721 63 230 2.0 4.0 0.00 0.01 0.01 86 1008.6
20260831061733 62 201 2.0 6.0 0.00 0.01 0.01 87 1008.5
20260831060730 62 250 2.0 8.0 0.00 0.01 0.01 87 1008.5
20260831055727 62 181 2.0 7.0 0.00 0.01 0.01 88 1008.5
20260831054724 61 166 1.0 4.0 0.00 0.01 0.01 88 1008.3
20260831053720 61 165 1.0 3.0 0.00 0.01 0.01 88 1008.4
20260831052718 61 197 1.0 4.0 0.00 0.01 0.01 88 1008.3
20260831051735 61 179 2.0 6.0 0.00 0.01 0.01 88 1008.4
20260831050732 60 155 1.0 3.0 0.00 0.01 0.01 89 1008.3
20260831045728 60 143 1.0 2.0 0.00 0.01 0.01 90 1008.3
20260831044726 60 155 1.0 4.0 0.00 0.01 0.01 91 1008.4
20260831043722 60 145 1.0 2.0 0.00 0.01 0.01 91 1008.3
20260831042719 60 144 0.0 2.0 0.00 0.01 0.01 91 1008.3
20260831041716 61 161 0.0 1.0 0.01 0.01 0.01 90 1008.1
20260831040733 61 148 1.0 2.0 0.01 0.01 0.01 90 1008.2
20260831035730 61 140 1.0 2.0 0.01 0.01 0.01 89 1008.2
20260831034727 61 150 1.0 3.0 0.01 0.01 0.01 88 1008.3
20260831033724 62 238 1.0 3.0 0.01 0.01 0.01 87 1008.3
20260831032721 63 210 1.0 4.0 0.01 0.01 0.01 85 1008.5
20260831031718 63 168 1.0 6.0 0.00 0.00 0.00 84 1008.5
20260831030715 62 176 1.0 4.0 0.00 0.00 0.00 84 1008.4
20260831025732 62 173 1.0 2.0 0.00 0.00 0.00 85 1008.4
20260831024730 62 160 0.0 2.0 0.00 0.00 0.00 86 1008.3
20260831023727 62 179 0.0 1.0 0.00 0.00 0.00 85 1008.1
20260831022724 62 0.0 0.0 0.00 0.00 0.00 85 1008.2
20260831021720 62 0.0 0.0 0.00 0.00 0.00 85 1008.3
20260831020717 62 176 0.0 1.0 0.00 0.00 0.00 84 1008.2
20260831015735 62 187 0.0 1.0 0.00 0.00 0.00 84 1008.1
20260831014732 62 188 0.0 2.0 0.00 0.00 0.00 83 1008.2
20260831013729 63 148 0.0 1.0 0.00 0.00 0.00 83 1008.4
20260831012726 63 152 1.0 3.0 0.00 0.00 0.00 82 1008.5
20260831011723 63 148 1.0 3.0 0.00 0.00 0.00 82 1008.5
20260831010720 63 186 1.0 2.0 0.00 0.00 0.00 83 1008.8
20260831005717 63 131 0.0 2.0 0.00 0.00 0.00 83 1008.8
20260831004734 63 155 1.0 2.0 0.00 0.00 0.00 83 1008.9